Regional Weather Roundup
Issued by NWS Green Bay, WI

Home | Current Version | Previous Version | Text Only | Print | Product List | Glossary On
Versions: 1 2 3 4 5 6 7 8 9 10 11 12 13 14 15 16 17 18 19 20 21 22 23 24 25 26 27 28 29 30 31 32 33 34 35 36 37 38 39 40 41 42 43 44 45 46 47 48 49 50
000
ASUS43 KGRB 250259
RWRGRB

NORTH-CENTRAL AND NORTHEAST WISCONSIN REGIONAL WEATHER ROUNDUP
NATIONAL WEATHER SERVICE GREEN BAY WI
1000 PM CDT FRI APR 24 2015

WIZ005-009-010>012-018-019-250400-
NORTH CENTRAL WISCONSIN

CITY           SKY/WX    TMP DP  RH WIND       PRES   REMARKS
IRONWOOD       CLOUDY    39  32  75 E6        29.92F
MANITOWISH WTR NOT AVBL
ARBOR VITAE    NOT AVBL
EAGLE RIVER    NOT AVBL
LAND O LAKES   NOT AVBL
RHINELANDER    CLOUDY    41  28  60 SE9       29.96R
PHILLIPS       NOT AVBL
ANTIGO         NOT AVBL
TOMAHAWK       NOT AVBL
MERRILL        NOT AVBL
$$

WIZ013-073-250400-
NORTHEAST WISCONSIN

CITY           SKY/WX    TMP DP  RH WIND       PRES   REMARKS
IRON MOUNTAIN  CLOUDY    39  26  59 E5        29.98S
MARINETTE      CLOUDY    37  25  60 NE5       30.01R
$$

WIZ017-030-035>037-045-250400-
CENTRAL WISCONSIN

CITY           SKY/WX    TMP DP  RH WIND       PRES   REMARKS
MEDFORD        NOT AVBL
WAUSAU         LGT RAIN  41  36  82 E7        29.95R
MOSINEE        DRIZZLE   43  30  61 E9        29.96R
MARSHFIELD     LGT RAIN  43  31  62 SE14      29.93R
WISC RAPIDS    LGT RAIN  42  36  79 SE8       29.95S
STEVENS POINT  NOT AVBL
WAUPACA        NOT AVBL
SHAWANO        NOT AVBL
CLINTONVILLE   NOT AVBL
$$

WIZ038-039-048-051-250400-
FOX VALLEY

CITY           SKY/WX    TMP DP  RH WIND       PRES   REMARKS
NWS GREEN BAY  CLOUDY    42  21  43 SE5       29.99F
APPLETON       CLOUDY    39  21  48 SE7       29.99S
OSHKOSH        CLOUDY    40  33  76 SE12      29.98R
FOND DU LAC    LGT RAIN  39  33  79 SE8       29.99R
$$

WIZ022-050-052-250400-
EAST CENTRAL WISCONSIN

CITY           SKY/WX    TMP DP  RH WIND       PRES   REMARKS
STURGEON BAY   CLOUDY    37  19  48 E9        30.02S
MANITOWOC      NOT AVBL
SHEBOYGAN      LGT RAIN  37  31  78 CALM      30.00S
$$

LMZ563-521-522-541>543-250400-
LAKESHORE

STATION/POSITION TIME  TEMP    WIND        PRES    VSBY  WAVE
                       AIR SEA DIR/SP/G                  HT/PER
                 (UTC) (F)     (DEG/KT/KT) (MB)    (MI)  (FT/S)
SHEBOYGAN LKSHOR 0200   38      90/  4/  5 1016.8R
KEWAUNEE LKSHORE 0200   39      50/  6/  9 1015.0F
NORTHPORT PIER   0200   38     110/  5/  6 1016.6S
SISTER BAY LKSHO 0200   37     130/  6/ 10   N/A
CHAMBERS ISLAND  0200   39      80/  7/  9 1016.3S
MENOMINEE LKSHOR 0200   39      80/  3/  5 1016.8R
$$



USA.gov is the U.S. government's official web portal to all federal, state and local government web resources and services.